Regional Weather Roundup
Issued by NWS

Home | Current Version | Previous Version | Graphics & Text | Print | Product List | Glossary On
Versions: 1 2 3 4 5 6 7 8 9 10 11 12 13 14 15 16 17 18 19 20 21 22 23 24 25 26 27 28 29 30 31 32 33 34 35 36 37 38 39 40 41 42 43 44 45 46 47 48 49 50
000
ASUS43 KLMK 021902
RWRKY
KENTUCKY REGIONAL WEATHER ROUNDUP
NATIONAL WEATHER SERVICE LOUISVILLE KY
300 PM EDT THU JUL 02 2015

NOTE "FAIR" INDICATES FEW OR NO CLOUDS BELOW 12,000 FEET
WITH NO SIGNIFICANT WEATHER AND/OR OBSTRUCTIONS TO VISIBILITY.

KYZ001>023-026-027-061>063-070>075-022000-
WESTERN AND SOUTH CENTRAL KENTUCKY

CITY           SKY/WX    TMP DP  RH WIND       PRES   REMARKS
PADUCAH        PTSUNNY   87  71  58 W12       29.83F HX  93
HENDERSON      CLOUDY    79  68  69 CALM      29.83F
OWENSBORO      PTSUNNY   83  71  66 VRB6      29.86F
HOPKINSVILLE   MOSUNNY   83  74  72 SW14      29.85F HX  90
BOWLING GREEN  CLOUDY    84  70  62 SW14      29.86F
GLASGOW        NOT AVBL
$$

KYZ024-025-028>034-038-045-046-053-022000-
NORTH CENTRAL KENTUCKY

CITY           SKY/WX    TMP DP  RH WIND       PRES   REMARKS
LOUISVILLE/SDF CLOUDY    79  68  69 SW6       29.86F
LOUISVILLE/LOU CLOUDY    77  68  73 S3        29.88S
FORT KNOX      LGT RAIN  73  69  87 S6        29.87S
$$

KYZ035>037-039>044-047>052-055>060-089>105-022000-
NORTHEAST KENTUCKY

CITY           SKY/WX    TMP DP  RH WIND       PRES   REMARKS
LEXINGTON      LGT RAIN  75  69  81 SE5       29.90F
COVINGTON      CLOUDY    77  67  71 E8        29.88F
FRANKFORT      CLOUDY    77  68  73 SW10      29.87F
$$

KYZ054-064>069-076>088-106>120-022000-
SOUTHEAST KENTUCKY

CITY           SKY/WX    TMP DP  RH WIND       PRES   REMARKS
JACKSON        CLOUDY    73  67  81 VRB3      29.94S
LONDON         CLOUDY    75  63  66 SW9       29.94S
SOMERSET       NOT AVBL
MIDDLESBORO    NOT AVBL
MONTICELLO     CLOUDY    77  69  76 S5        29.95F
$$




USA.gov is the U.S. government's official web portal to all federal, state and local government web resources and services.